Regional Weather Roundup
Issued by NWS Newport/Morehead, NC

Current Version | Previous Version | Text Only | Print | Product List | Glossary On
Versions: 1 2 3 4 5 6 7 8 9 10 11 12 13 14 15 16 17 18 19 20 21 22 23 24 25 26 27 28 29 30 31 32 33 34 35 36 37 38 39 40 41 42 43 44 45 46 47 48 49 50
000 ASUS42 KMHX 262025 RWRMHX WEATHER ROUNDUP FOR EASTERN NORTH CAROLINA NATIONAL WEATHER SERVICE NEWPORT/MOREHEAD CITY NC 400 PM EDT TUE MAY 26 2015 NOTE: "FAIR" INDICATES FEW OR NO CLOUDS BELOW 12,000 FEET WITH NO SIGNIFICANT WEATHER AND/OR OBSTRUCTIONS TO VISIBILITY NCZ015>017-031-032-045>047-102-103-262100- NORTH COAST CITY SKY/WX TMP DP RH WIND PRES REMARKS EDENTON N/A 84 69 59 S10G16 30.25S ELIZABETH CITY MOSUNNY 84 66 54 S10 30.25F KITTY HAWK CLEAR 79 65 62 S14G21 30.27F MANTEO MOSUNNY 78 66 67 S18G24 30.29S $$ NCZ045>047-081-094-103-104-262100- CENTRAL COAST CITY SKY/WX TMP DP RH WIND PRES REMARKS FRISCO SUNNY 81 64 56 S15 30.31F SWANQUARTER N/A 79 N/A N/A S18G24 30.24S $$ NCZ095-097-098-100-101-262100- SOUTHERN COAST CITY SKY/WX TMP DP RH WIND PRES REMARKS BEAUFORT MOSUNNY 79 69 71 SE14G20 30.30S CEDAR ISLAND N/A 79 N/A N/A SE14G22 30.33S JACKSONVILLE PTSUNNY 81 68 64 SE16 30.26F PINEY ISLAND PTCLDY N/A N/A N/A SE17 30.29F WILMINGTON PTSUNNY 80 70 71 SE12G18 30.26F $$ NCZ011>013-027>030-043-044-078>080-089-090>093-098-262100- COASTAL PLAIN CITY SKY/WX TMP DP RH WIND PRES REMARKS AHOSKIE MOSUNNY 84 64 51 S5 30.23F CLINTON MOSUNNY 83 76 79 SE3 30.24F ELIZABETHTOWN RAIN 79 73 81 E9G17 30.23S GOLDSBORO PTSUNNY 84 70 63 SE10 30.21F GREENVILLE MOSUNNY 86 66 51 S9 30.24F HAVELOCK MOSUNNY 80 68 66 S13G23 30.28F KENANSVILLE CLOUDY 78 70 77 SE5 30.26F KINSTON MOSUNNY 86 68 54 S12 30.24F NEW BERN PTSUNNY 84 68 58 S14 30.27F RICHLANDS CLOUDY 81 66 61 S10 30.26F ROCKY MOUNT SUNNY 88 66 48 SW7 30.22F WASHINGTON SUNNY 85 67 53 SE7 30.24F WHITEVILLE PTSUNNY 83 70 64 SE12G17 30.22F $$ AMZ130-135-150-152-154-156-158-170-250-252-270-ANZ085-086-088-633-658-670-262100- MARINE OBSERVATIONS STATION/POSITION TIME TEMP WIND PRES WAVE SWELL AIR SEA DIR/SP/G HT/PER HT/PER (UTC) (F) (DEG/KT/KT) (MB) (FT/S) (FT/S) CHESAPEAKE LIGHT 2000 69 160/ 24/ 26 1024.5 64 E VA BEACH 1950 68 65 170/ 12/ 12 1025.6 3/ 5 2/ 7 DUCK 2000 76 63 160/ 23/ 25 1023.6 2 E DUCK 1911 65 N/A 2/ 5 OREGON INLET 2000 78 78 170/ 14/ 22 1025.7 13E OREGON INLT 2000 69 N/A 3/ 6 HATTERAS CG 2000 77 76 160/ 12/ 15 1025.7 DIAMOND BUOY 1950 75 77 160/ 16/ 17 1026.2 3/ 5 2/ 9 CAPE LOOKOUT 2000 75 160/ 13/ 14 1025.7 BEAUFORT LAB 2000 76 75 170/ 11/ 14 1025.0 27 SE WRIGHTSVLE 2000 74 76 170/ 14/ 16 N/A 5 SE WRIGHTSVLE 1908 77 77 160/ 14/ 19 1025.1 225 S CAPE HAT 1950 74 75 100/ 12/ 14 1026.7 4/ 6 3/ 6 41 SE CHARLESTON 1950 75 77 70/ 8/ 10 1023.7 3/ 6 3/ 6 $$

USA.gov is the U.S. government's official web portal to all federal, state and local government web resources and services.